Weather WX

World > North America > United States > Oregon

Veneta, Oregon Regional Weather

Lat: 44.05N, Lon: 123.35W
Wx Zone: ORZ004
Feedback

Veneta, OR Regional Weather

Expires:201906161100;;155061
ASUS46 KPQR 161010
RWROR 

OREGON REGIONAL WEATHER ROUNDUP
NATIONAL WEATHER SERVICE PORTLAND OR
300 AM PDT SUN JUN 16 2019

NOTE: "FAIR" INDICATES FEW OR NO CLOUDS BELOW 12,000 FEET WITH
NO SIGNIFICANT WEATHER AND/OR OBSTRUCTIONS TO VISIBILITY.


ORZ001>013-161100-
NORTHWEST OREGON

  
CITY           SKY/WX    TMP DP  RH WIND       PRES   REMARKS
ASTORIA        CLOUDY    54  49  83 N12       30.08S                  
TILLAMOOK      CLOUDY    52  50  93 CALM      30.09R                  
NEWPORT        CLOUDY    50  50 100 CALM      30.08S                  
PORTLAND       CLEAR     57  49  74 N7        30.03R                  
VANCOUVER WA   CLEAR     56  49  77 N6        30.02R                  
SCAPPOOSE      CLEAR     56  48  74 MISG      30.02R                  
HILLSBORO      CLEAR     52  48  86 CALM      30.01S                  
AURORA         CLEAR     57  49  74 CALM      30.02S                  
MCMINNVILLE    CLEAR     54  50  86 W6        30.01S                  
SALEM          CLEAR     58  50  75 NW3       30.00S                  
CORVALLIS      CLEAR     56  51  84 NW8       30.01S                  
EUGENE         CLEAR     56  51  84 W6        30.00S                  
$$


SKY/WX - Weather  TMP - Temperature  DP - Dew Point  RH - Relative Humidity
WIND - Wind Direction/Speed PRES - Barometric Pressure VSB - Visibility
WCI - Wind Chill Index E13G22 Wind - East Wind 13 mph/Gusts of 22 mph